Latest Coastal Weather Observations for Wilsons Promontory

IDT60701

Issued at 11:12 pm EST Friday 6 May 2016 (issued every 10 minutes, with the page automatically refreshed every 10 minutes)

About coastal observations | Map of coastal stations | Coastal observations for TAS | Marine services | Other Formats
Station Details ID: 085096 Name: WILSONS PROMONTORY LIGHTHOUSE Lat: -39.13 Lon: 146.42 Height: 95.0 m
Data from the previous 72 hours. | See also: Recent months at Wilsons Promontory
Date/Time
EST
Temp

°C
Wind Pressure Rain
since 9am
mm
Weather Cloud Vis
km
Sea
Height
m
Swell
Dir
 
Speed
knots
Gust
knots
hPa Trend Height
m
Period
s
Dir
06/11:00pm 14.6 NNE 6 6 1017.3 - 0.0 - - - - - - -
06/10:30pm 14.9 CALM 0 0 1017.1 - 0.0 - - - - - - -
06/10:00pm 14.9 CALM 0 0 1017.3 - 0.0 - - - - - - -
06/09:30pm 15.0 CALM 0 0 1017.4 - 0.0 - - - - - - -
06/09:00pm 15.0 CALM 0 0 1017.5 - 0.0 - - - - - - -
06/08:30pm 15.1 W 2 6 1017.2 - 0.0 - - - - - - -
06/08:00pm 15.0 WNW 5 7 1016.9 - 0.0 - - - - - - -
06/07:30pm 15.2 NW 3 6 1016.7 - 0.0 - - - - - - -
06/07:00pm 15.3 WNW 14 17 1016.0 - 0.0 - - - - - - -
06/06:30pm 15.6 W 21 25 1014.9 - 0.0 - - - - - - -
06/06:00pm 15.8 W 21 25 1014.4 - 0.0 - - - - - - -
06/05:30pm 16.0 W 18 22 1014.2 - 0.0 - - - - - - -
06/05:00pm 16.4 W 19 22 1014.1 - 0.0 - - - - - - -
06/04:30pm 16.6 W 15 18 1014.1 - 0.0 - - - - - - -
06/04:00pm 16.9 W 16 19 1013.9 - 0.0 - - - - - - -
06/03:30pm 17.4 W 12 16 1013.9 - 0.0 - - - - - - -
06/03:00pm 17.8 W 12 15 1014.0 - 0.0 - - - - - - -
06/02:30pm 17.9 W 14 18 1013.7 - 0.0 - - - - - - -
06/02:00pm 18.5 W 12 21 1013.7 - 0.0 - - - - - - -
06/01:30pm 18.9 W 14 21 1013.5 - 0.0 - - - - - - -
06/01:00pm 19.2 W 17 26 1013.4 - 0.0 - - - - - - -
06/12:38pm 19.4 W 18 28 1013.5 - 0.0 - - - - - - -
06/12:30pm 19.1 W 19 28 1013.3 - 0.0 - - - - - - -
06/12:28pm 19.3 W 17 27 1013.6 - 0.0 - - - - - - -
06/12:00pm 19.0 W 16 24 1014.1 - 0.0 - - - - - - -
06/11:31am 18.5 W 16 26 1014.5 - 0.0 - - - - - - -
06/11:30am 18.4 W 17 26 1014.4 - 0.0 - - - - - - -
06/11:15am 18.2 W 15 25 1014.2 - 0.0 - - - - - - -
06/11:00am 18.3 W 15 24 1014.3 - 0.0 - - - - - - -
06/10:55am 18.3 W 16 26 1014.3 - 0.0 - - - - - - -
06/10:30am 18.1 W 15 22 1014.0 - 0.0 - - - - - - -
06/10:00am 18.3 W 17 27 1013.9 - 0.0 - - - - - - -
06/09:46am 18.2 W 18 28 1013.8 - 0.0 - - - - - - -
06/09:30am 19.8 WSW 9 24 1013.7 - 0.0 - - - - - - -
06/09:00am 21.2 NNW 12 34 1013.4 - 0.0 - - - - - - -
06/08:30am 20.9 NW 16 27 1013.4 - 0.0 - - - - - - -
06/08:05am 20.7 N 15 30 1013.0 - 0.0 - - - - - - -
06/08:00am 20.8 NNW 14 30 1013.1 - 0.0 - - - - - - -
06/07:30am 20.7 NNW 12 26 1012.8 - 0.0 - - - - - - -
06/07:00am 20.3 NNW 10 20 1012.6 - 0.0 - - - - - - -
06/06:30am 20.2 NNW 10 20 1012.1 - 0.0 - - - - - - -
06/06:00am 20.3 NNW 12 34 1011.9 - 0.0 - - - - - - -
06/05:30am 20.2 NNW 12 28 1011.6 - 0.0 - - - - - - -
06/05:03am 20.0 NNW 15 34 1011.5 - 0.0 - - - - - - -
06/05:00am 20.1 NNW 13 34 1011.5 - 0.0 - - - - - - -
06/04:00am 20.1 NNW 17 31 1011.0 - 0.0 - - - - - - -
06/03:30am 19.8 NNW 15 32 1011.5 - 0.0 - - - - - - -
06/03:00am 19.9 NNW 17 31 1011.4 - 0.0 - - - - - - -
06/02:30am 19.9 NNW 17 37 1011.2 - 0.0 - - - - - - -
06/02:00am 19.9 NNW 16 30 1011.4 - 0.0 - - - - - - -
06/01:30am 19.8 NNW 16 34 1011.4 - 0.0 - - - - - - -
06/01:00am 19.8 NNW 17 33 1011.5 - 0.0 - - - - - - -
06/12:30am 19.7 NNW 17 37 1011.5 - 0.0 - - - - - - -
06/12:08am 19.7 NNW 15 30 1011.4 - 0.0 - - - - - - -
06/12:00am 19.7 NNW 14 30 1011.5 - 0.0 - - - - - - -
 
Date/Time
EST
Temp

°C
Wind Pressure Rain
since 9am
mm
Weather Cloud Vis
km
Sea
Height
m
Swell
Dir
 
Speed
knots
Gust
knots
hPa Trend Height
m
Period
s
Dir
05/11:30pm 19.2 NNW 13 28 1011.8 - 0.0 - - - - - - -
05/11:00pm 19.3 NNW 17 34 1011.7 - 0.0 - - - - - - -
05/10:30pm 19.1 NNW 17 31 1012.1 - 0.0 - - - - - - -
05/10:00pm 19.2 NNW 17 31 1012.1 - 0.0 - - - - - - -
05/09:30pm 19.1 NNW 18 32 1012.3 - 0.0 - - - - - - -
05/09:18pm 19.1 N 15 39 1012.2 - 0.0 - - - - - - -
05/09:00pm 18.9 NNW 15 26 1012.4 - 0.0 - - - - - - -
05/08:30pm 18.6 NNW 15 29 1012.4 - 0.0 - - - - - - -
05/08:00pm 18.5 NNW 18 31 1012.2 - 0.0 - - - - - - -
05/07:30pm 18.5 NNW 18 36 1012.0 - 0.0 - - - - - - -
05/07:00pm 18.4 NNW 19 36 1011.9 - 0.0 - - - - - - -
05/06:30pm 18.3 NNW 16 33 1011.8 - 0.0 - - - - - - -
05/06:09pm 18.2 N 15 35 1011.8 - 0.0 - - - - - - -
05/06:00pm 18.1 NNW 12 22 1012.0 - 0.0 - - - - - - -
05/05:30pm 18.0 NNW 11 19 1011.9 - 0.0 - - - - - - -
05/05:00pm 18.2 N 9 17 1012.0 - 0.0 - - - - - - -
05/04:30pm 18.5 N 9 15 1011.9 - 0.0 - - - - - - -
05/04:00pm 18.9 N 9 17 1011.9 - 0.0 - - - - - - -
05/03:30pm 18.8 N 9 20 1012.1 - 0.0 - - - - - - -
05/03:00pm 18.5 NNW 9 19 1012.0 - 0.0 - - - - - - -
05/02:30pm 18.5 NNW 12 23 1012.2 - 0.0 - - - - - - -
05/02:00pm 18.8 NNW 10 17 1012.4 - 0.0 - - - - - - -
05/01:30pm 18.6 WNW 10 19 1012.3 - 0.0 - - - - - - -
05/01:00pm 18.1 WNW 11 30 1012.4 - 0.0 - - - - - - -
05/12:33pm 17.9 WNW 15 25 1013.0 - 0.0 - - - - - - -
05/12:30pm 18.0 NNW 8 20 1013.1 - 0.0 - - - - - - -
05/12:00pm 18.4 WSW 6 14 1013.7 - 0.0 - - - - - - -
05/11:30am 17.7 WNW 9 21 1014.2 - 0.0 - - - - - - -
05/11:00am 17.2 NNW 13 27 1014.7 - 0.0 - - - - - - -
05/10:43am 16.8 NNW 15 30 1014.5 - 0.0 - - - - - - -
05/10:30am 16.7 NW 9 25 1014.6 - 0.0 - - - - - - -
05/10:00am 16.8 WNW 13 29 1015.0 - 0.0 - - - - - - -
05/09:57am 16.6 WNW 15 29 1014.7 - 0.0 - - - - - - -
05/09:30am 16.8 W 9 31 1015.1 - 0.0 - - - - - - -
05/09:00am 16.6 NW 15 34 1014.9 - 1.0 - - - - - - -
05/08:54am 16.5 NW 15 34 1014.8 - 1.0 - - - - - - -
05/08:30am 16.4 NNW 13 31 1015.1 - 1.0 - - - - - - -
05/08:00am 16.1 NNW 13 31 1014.7 - 1.0 - - - - - - -
05/07:30am 15.7 NW 16 29 1014.8 - 1.0 - - - - - - -
05/07:23am 15.6 NW 15 29 1014.6 - 1.0 - - - - - - -
05/07:00am 15.1 NW 13 28 1014.6 - 1.0 - - - - - - -
05/06:42am 15.2 NW 21 31 1014.3 - 1.0 - - - - - - -
05/06:30am 15.1 NW 11 23 1014.5 - 1.0 - - - - - - -
05/06:00am 14.9 NW 16 29 1014.4 - 1.0 - - - - - - -
05/05:30am 15.0 WNW 15 33 1014.4 - 1.0 - - - - - - -
05/05:20am 15.1 NW 15 29 1014.3 - 1.0 - - - - - - -
05/05:00am 14.9 NW 13 26 1014.2 - 1.0 - - - - - - -
05/04:46am 14.7 NW 15 29 1014.1 - 1.0 - - - - - - -
05/04:30am 14.7 NW 12 24 1013.9 - 1.0 - - - - - - -
05/04:13am 14.6 NW 15 27 1014.1 - 1.0 - - - - - - -
05/04:00am 14.5 NW 11 24 1014.4 - 1.0 - - - - - - -
05/03:30am 14.7 N 11 18 1014.3 - 1.0 - - - - - - -
05/03:00am 14.5 NW 10 22 1014.6 - 1.0 - - - - - - -
05/02:30am 14.5 NNW 8 16 1014.6 - 1.0 - - - - - - -
05/02:00am 14.3 NNW 8 17 1014.6 - 1.0 - - - - - - -
05/01:30am 14.3 NNE 7 15 1014.4 - 1.0 - - - - - - -
05/01:00am 14.6 NW 9 26 1014.4 - 1.0 - - - - - - -
05/12:30am 14.6 N 9 26 1014.5 - 1.0 - - - - - - -
05/12:27am 14.6 W 15 26 1014.3 - 1.0 - - - - - - -
05/12:00am 14.7 NW 13 27 1014.4 - 1.0 - - - - - - -
 
Date/Time
EST
Temp

°C
Wind Pressure Rain
since 9am
mm
Weather Cloud Vis
km
Sea
Height
m
Swell
Dir
 
Speed
knots
Gust
knots
hPa Trend Height
m
Period
s
Dir
04/11:30pm 14.7 NNW 15 26 1014.6 - 1.0 - - - - - - -
04/11:29pm 14.6 N 15 26 1014.6 - 1.0 - - - - - - -
04/11:00pm 14.5 N 8 21 1014.8 - 1.0 - - - - - - -
04/10:30pm 14.4 N 10 19 1015.0 - 1.0 - - - - - - -
04/10:00pm 14.3 NNW 11 26 1015.1 - 1.0 - - - - - - -
04/09:55pm 14.4 NW 15 26 1015.0 - 1.0 - - - - - - -
04/09:30pm 14.1 NNW 10 25 1015.2 - 1.0 - - - - - - -
04/09:00pm 13.9 NW 9 18 1015.1 - 1.0 - - - - - - -
04/08:30pm 13.6 N 7 15 1015.0 - 1.0 - - - - - - -
04/08:00pm 13.7 N 7 14 1014.9 - 1.0 - - - - - - -
04/07:30pm 13.4 N 7 13 1014.7 - 1.0 - - - - - - -
04/07:00pm 13.5 N 6 10 1014.4 - 1.0 - - - - - - -
04/06:30pm 13.6 NNE 4 7 1014.1 - 1.0 - - - - - - -
04/06:00pm 14.0 NNW 8 19 1013.7 - 1.0 - - - - - - -
04/05:00pm 14.1 W 11 21 1013.3 - 1.0 - - - - - - -
04/04:30pm 14.2 W 13 23 1013.2 - 1.0 - - - - - - -
04/04:00pm 14.2 W 12 23 1013.0 - 1.0 - - - - - - -
04/03:30pm 14.0 W 16 31 1012.9 - 1.0 - - - - - - -
04/03:04pm 14.1 W 15 27 1012.7 - 1.0 - - - - - - -
04/03:00pm 14.3 W 13 25 1012.6 - 1.0 - - - - - - -
04/02:51pm 14.3 W 15 25 1012.6 - 1.0 - - - - - - -
04/02:30pm 13.9 W 11 19 1012.7 - 1.0 - - - - - - -
04/02:14pm 13.7 W 15 25 1012.5 - 1.0 - - - - - - -
04/02:00pm 13.9 W 13 21 1012.6 - 1.0 - - - - - - -
04/01:32pm 13.6 W 15 28 1012.2 - 1.0 - - - - - - -
04/01:00pm 13.2 W 17 27 1012.5 - 1.0 - - - - - - -
04/12:30pm 13.4 W 15 29 1012.7 - 1.0 - - - - - - -
04/12:02pm 13.0 W 15 28 1012.7 - 1.0 - - - - - - -
04/12:00pm 13.1 W 14 28 1012.6 - 1.0 - - - - - - -
04/11:54am 12.8 W 15 29 1012.8 - 1.0 - - - - - - -
04/11:30am 12.6 W 9 19 1013.0 - 1.0 - - - - - - -
04/11:00am 11.9 W 4 10 1013.2 - 1.0 - - - - - - -
04/10:57am 11.8 WNW 6 24 1013.2 - 1.0 - - - - - - -
04/10:34am 11.2 W 21 31 1012.7 - 1.0 - - - - - - -
04/10:30am 11.0 W 22 31 1012.7 - 0.8 - - - - - - -
04/10:16am 11.7 W 16 35 1012.8 - 0.8 - - - - - - -
04/10:00am 12.7 W 12 19 1012.7 - 0.0 - - - - - - -
04/09:30am 12.6 WNW 10 21 1012.6 - 0.0 - - - - - - -
04/09:00am 12.2 W 15 25 1012.3 - 12.2 - - - - - - -
04/08:30am 12.5 W 21 31 1011.6 - 12.2 - - - - - - -
04/08:01am 12.6 W 22 32 1011.2 - 12.2 - - - - - - -
04/08:00am 12.7 W 21 29 1011.2 - 12.2 - - - - - - -
04/07:30am 11.8 W 20 32 1010.7 - 12.2 - - - - - - -
04/07:00am 12.6 WSW 17 28 1010.1 - 12.0 - - - - - - -
04/06:31am 12.6 W 18 37 1009.4 - 12.0 - - - - - - -
04/06:30am 12.7 W 16 37 1009.5 - 12.0 - - - - - - -
04/06:00am 12.4 W 27 38 1008.9 - 12.0 - - - - - - -
04/05:30am 11.8 W 25 37 1008.5 - 12.0 - - - - - - -
04/05:00am 11.9 W 22 35 1007.9 - 11.8 - - - - - - -
04/04:30am 11.3 W 24 41 1007.6 - 11.8 - - - - - - -
04/04:00am 10.8 W 27 40 1007.0 - 11.8 - - - - - - -
04/03:30am 11.1 W 21 33 1007.0 - 11.4 - - - - - - -
04/03:00am 12.6 W 27 40 1005.5 - 10.4 - - - - - - -
04/02:30am 12.2 W 27 39 1005.6 - 10.4 - - - - - - -
04/02:00am 11.8 W 25 40 1005.0 - 10.4 - - - - - - -
04/01:30am 12.0 W 26 42 1005.0 - 9.0 - - - - - - -
04/01:08am 11.3 W 28 50 1005.0 - 9.0 - - - - - - -
04/01:07am 11.2 W 28 54 1004.9 - 9.0 - - - - - - -
04/01:00am 11.1 W 39 55 1004.5 - 9.0 - - - - - - -
04/12:57am 10.9 W 42 55 1004.2 - 9.0 - - - - - - -
04/12:45am 10.1 W 28 56 1004.9 - 9.0 - - - - - - -
04/12:39am 10.6 W 43 56 1003.5 - 8.8 - - - - - - -
04/12:36am 12.3 W 33 56 1003.7 - 8.8 - - - - - - -
04/12:30am 12.2 W 34 46 1003.9 - 8.8 - - - - - - -
04/12:00am 11.0 W 31 47 1004.1 - 8.6 - - - - - - -
 
Date/Time
EST
Temp

°C
Wind Pressure Rain
since 9am
mm
Weather Cloud Vis
km
Sea
Height
m
Swell
Dir
 
Speed
knots
Gust
knots
hPa Trend Height
m
Period
s
Dir
03/11:30pm 12.9 W 31 44 1003.2 - 7.8 - - - - - - -

Other Formats:

Comma delimited format used in spreadsheet applications
http://www.bom.gov.au/fwo/IDT60701/IDT60701.94893.axf

JavaScript Object Notation format (JSON) in row-major order
http://www.bom.gov.au/fwo/IDT60701/IDT60701.94893.json